(2010 FT) |
Classification: Apollo [NEO] SPK-ID: 3512284 |
[ hide orbit diagram ]
For accurate long-term ephemerides, please instead use our Horizons system.This orbit viewer was implemented using two-body methods, and hence should not be used for determining accurate long-term trajectories (over several years or decades) or planetary encounter circumstances.
Orbital Elements at Epoch 2459000.5 (2020-May-31.0) TDB
Reference: JPL 11 (heliocentric ecliptic J2000)
Element | Value | Uncertainty (1-sigma) | Units |
e | .1945545977844582 | 0.00047287 | |
a | 1.090090121466374 | 0.00022366 | au |
q | .8780080763356723 | 0.00033533 | au |
i | 5.604376994438395 | 0.010339 | deg |
node | 13.79665188088489 | 0.011318 | deg |
peri | 246.1856480782357 | 0.029446 | deg |
M | 287.7084118426748 | 1.486 | deg |
tp | 2459083.979011519767 (2020-Aug-22.47901152) | 1.7416 | TDB |
period | 415.7114944233116 1.14 | 0.12794 0.0003503 | d yr |
n | .8659851960538248 | 0.00026652 | deg/d |
Q | 1.302172166597076 | 0.00026718 | au |
|
| | Orbit Determination Parameters
Additional Information
|
[ show covariance matrix ]
Physical Parameter Table
Parameter |
Symbol |
Value |
Units |
Sigma |
Reference |
Notes |
absolute magnitude |
H |
25.7 |
|
n/a |
MPO173778 |
|
diameter |
diameter |
0.018 |
km |
0.001 |
urn:nasa:pds:neowise_diameters_albedos::2.0[neos] (http://adsabs.harvard.edu/abs/2014ApJ...784..110M) |
|
geometric albedo |
albedo |
0.294 |
|
0.062 |
urn:nasa:pds:neowise_diameters_albedos::2.0[neos] (http://adsabs.harvard.edu/abs/2014ApJ...784..110M) |
|
|
[ show close-approach data ]
|